Simultaneous Nadir Overpasses (SNOs) Predictions

Prediction of SNOs between AQUA and METOP-C Satellite Orbit:

Table of predicted SNOs for the next 14.0 days since TLE Epoch: 3/22/2025
Index Date (AQUA) Time (AQUA) Lat,Lon (AQUA) SZA (AQUA ) Date (METOP-C) Time (METOP-C) Lat,Lon (METOP-C) SZA (METOP-C ) Distance(km) Time Diff (sec)
1 03/23/2025 22:56:38 76.35,-162.59 74.85 03/23/2025 22:55:35 76.33,-162.53 74.84 2.29 63
2 03/23/2025 23:45:57 -76.39, 4.94 105.12 03/23/2025 23:46:16 -76.38, 4.96 105.13 1.56 19
3 03/26/2025 11:45:33 76.36, 5.22 73.87 03/26/2025 11:44:30 76.34, 5.28 73.86 2.11 63
4 03/26/2025 12:34:52 -76.40, 172.75 106.11 03/26/2025 12:35:11 -76.39, 172.78 106.11 1.20 19
5 03/29/2025 00:34:24 76.33, 173.14 72.86 03/29/2025 00:33:25 76.34, 173.04 72.86 2.79 59
6 03/29/2025 01:23:43 -76.38, -19.33 107.12 03/29/2025 01:24:06 -76.39, -19.46 107.10 3.54 23
7 03/31/2025 13:23:12 76.38, -19.15 71.92 03/31/2025 13:22:18 76.36, -19.11 71.90 1.98 54
8 03/31/2025 14:12:31 -76.42, 148.38 108.06 03/31/2025 14:12:59 -76.42, 148.40 108.06 1.01 28
9 04/03/2025 02:11:57 76.39, 148.68 70.96 04/03/2025 02:11:12 76.37, 148.67 70.93 2.84 45
10 04/03/2025 03:01:16 -76.44, -43.79 109.02 04/03/2025 03:01:53 -76.42, -43.81 109.03 1.95 37



Historial Predications of SNOs between AQUA and METOP-C
